TimeEDT,TemperatureF,Dew PointF,Humidity,Sea Level PressureIn,VisibilityMPH,Wind Direction,Wind SpeedMPH,Gust SpeedMPH,PrecipitationIn,Events,Conditions,WindDirDegrees,DateUTC
12:16 AM,39.0,30.9,73,30.06,10.0,Calm,Calm,-,N/A,,Overcast,0,2012-10-07 04:16:00
12:35 AM,39.6,32.0,74,30.06,10.0,WNW,3.5,-,N/A,,Overcast,300,2012-10-07 04:35:00
12:55 AM,39.4,31.6,74,30.06,10.0,Calm,Calm,-,N/A,,Overcast,0,2012-10-07 04:55:00
1:16 AM,39.6,30.6,70,30.06,10.0,Calm,Calm,-,N/A,,Overcast,0,2012-10-07 05:16:00
1:35 AM,39.4,30.9,72,30.06,10.0,Calm,Calm,-,N/A,,Overcast,0,2012-10-07 05:35:00
1:55 AM,39.2,30.9,72,30.06,10.0,Calm,Calm,-,N/A,,Overcast,0,2012-10-07 05:55:00
2:16 AM,38.5,28.4,67,30.06,10.0,Calm,Calm,-,N/A,,Overcast,0,2012-10-07 06:16:00
2:35 AM,35.1,31.3,86,30.07,10.0,Calm,Calm,-,N/A,,Scattered Clouds,0,2012-10-07 06:35:00
2:55 AM,32.9,30.7,92,30.07,10.0,Calm,Calm,-,N/A,,Mostly Cloudy,0,2012-10-07 06:55:00
3:15 AM,32.7,31.1,94,30.07,10.0,Calm,Calm,-,N/A,,Overcast,0,2012-10-07 07:15:00
3:35 AM,33.6,32.0,94,30.06,10.0,Calm,Calm,-,N/A,,Overcast,0,2012-10-07 07:35:00
3:55 AM,33.3,32.0,95,30.06,10.0,Calm,Calm,-,N/A,,Overcast,0,2012-10-07 07:55:00
4:15 AM,34.2,32.0,92,30.06,10.0,Calm,Calm,-,N/A,,Overcast,0,2012-10-07 08:15:00
4:35 AM,33.6,32.0,94,30.06,10.0,Calm,Calm,-,N/A,,Overcast,0,2012-10-07 08:35:00
4:55 AM,33.4,32.0,94,30.06,10.0,Calm,Calm,-,N/A,,Overcast,0,2012-10-07 08:55:00
5:15 AM,33.8,32.2,94,30.06,10.0,Calm,Calm,-,N/A,,Overcast,0,2012-10-07 09:15:00
5:35 AM,33.4,32.2,95,30.06,10.0,Calm,Calm,-,N/A,,Overcast,0,2012-10-07 09:35:00
5:55 AM,32.4,32.0,99,30.06,10.0,Calm,Calm,-,N/A,,Overcast,0,2012-10-07 09:55:00
6:15 AM,32.0,31.8,99,30.06,10.0,Calm,Calm,-,N/A,,Scattered Clouds,0,2012-10-07 10:15:00
6:36 AM,30.9,30.6,99,30.06,10.0,Calm,Calm,-,N/A,,Clear,0,2012-10-07 10:36:00
6:55 AM,29.7,29.3,99,30.07,10.0,Calm,Calm,-,N/A,,Clear,0,2012-10-07 10:55:00
7:15 AM,28.8,28.6,99,30.07,10.0,Calm,Calm,-,N/A,,Clear,0,2012-10-07 11:15:00
7:55 AM,28.4,28.4,100,30.06,10.0,Calm,Calm,-,N/A,,Clear,0,2012-10-07 11:55:00
8:15 AM,28.0,27.9,99,30.06,10.0,Calm,Calm,-,N/A,,Clear,0,2012-10-07 12:15:00
8:36 AM,28.9,28.6,99,30.07,10.0,Calm,Calm,-,N/A,,Clear,0,2012-10-07 12:36:00
8:55 AM,31.5,30.9,98,30.07,10.0,Calm,Calm,-,N/A,,Clear,0,2012-10-07 12:55:00
9:15 AM,34.5,33.1,94,30.07,10.0,Calm,Calm,-,N/A,,Clear,0,2012-10-07 13:15:00
9:35 AM,40.1,31.3,71,30.08,10.0,Calm,Calm,-,N/A,,Clear,0,2012-10-07 13:35:00
9:55 AM,41.2,30.6,66,30.08,10.0,Calm,Calm,-,N/A,,Clear,0,2012-10-07 13:55:00
10:15 AM,42.3,30.7,64,30.08,10.0,SSW,3.5,-,N/A,,Clear,200,2012-10-07 14:15:00
10:35 AM,43.2,29.5,59,30.08,10.0,Calm,Calm,-,N/A,,Clear,0,2012-10-07 14:35:00
10:55 AM,43.9,29.5,57,30.07,10.0,NW,3.5,-,N/A,,Scattered Clouds,310,2012-10-07 14:55:00
11:16 AM,45.7,30.9,56,30.07,10.0,SW,4.6,-,N/A,,Clear,220,2012-10-07 15:16:00
11:35 AM,46.4,28.6,50,30.06,10.0,SW,4.6,-,N/A,,Scattered Clouds,230,2012-10-07 15:35:00
11:55 AM,46.0,28.9,51,30.06,10.0,SSW,6.9,-,N/A,,Scattered Clouds,210,2012-10-07 15:55:00
12:16 PM,46.6,32.5,58,30.06,10.0,SW,6.9,-,N/A,,Scattered Clouds,220,2012-10-07 16:16:00
12:35 PM,46.2,33.4,61,30.06,10.0,SSW,5.8,-,N/A,,Mostly Cloudy,210,2012-10-07 16:35:00
12:56 PM,46.9,32.9,58,30.05,10.0,SW,9.2,16.1,N/A,,Mostly Cloudy,220,2012-10-07 16:56:00
1:15 PM,47.3,32.5,57,30.05,10.0,SSW,6.9,-,N/A,,Scattered Clouds,200,2012-10-07 17:15:00
1:35 PM,45.5,32.5,61,30.04,10.0,South,8.1,-,N/A,,Scattered Clouds,180,2012-10-07 17:35:00
1:56 PM,46.6,33.4,60,30.03,10.0,SW,8.1,-,N/A,,Mostly Cloudy,230,2012-10-07 17:56:00
2:15 PM,47.3,34.3,61,30.03,10.0,South,8.1,-,N/A,,Overcast,180,2012-10-07 18:15:00
2:35 PM,47.7,32.4,55,30.02,10.0,WSW,11.5,-,N/A,,Overcast,240,2012-10-07 18:35:00
2:56 PM,48.4,32.5,54,30.02,10.0,SW,6.9,-,N/A,,Mostly Cloudy,220,2012-10-07 18:56:00
3:15 PM,47.8,32.0,54,30.02,10.0,WSW,6.9,-,N/A,,Scattered Clouds,240,2012-10-07 19:15:00
3:35 PM,47.3,33.1,58,30.02,10.0,SSW,10.4,17.3,N/A,,Scattered Clouds,210,2012-10-07 19:35:00
3:55 PM,44.8,35.6,70,30.02,10.0,SW,10.4,16.1,N/A,,Mostly Cloudy,220,2012-10-07 19:55:00
4:15 PM,46.0,34.5,64,30.01,10.0,SW,5.8,-,N/A,,Scattered Clouds,220,2012-10-07 20:15:00
4:36 PM,46.6,33.1,59,30.01,10.0,WSW,8.1,-,N/A,,Clear,240,2012-10-07 20:36:00
4:55 PM,43.9,32.9,65,30.00,10.0,SW,4.6,-,N/A,,Mostly Cloudy,230,2012-10-07 20:55:00
5:15 PM,44.1,35.2,71,30.01,10.0,SW,6.9,-,N/A,,Overcast,230,2012-10-07 21:15:00
5:36 PM,43.9,33.6,67,30.00,10.0,SW,5.8,-,N/A,,Overcast,220,2012-10-07 21:36:00
5:55 PM,43.9,33.1,66,30.00,10.0,SW,6.9,-,N/A,,Overcast,230,2012-10-07 21:55:00
6:15 PM,43.7,32.0,63,30.00,10.0,SSW,4.6,-,N/A,,Overcast,210,2012-10-07 22:15:00
6:36 PM,43.7,31.8,63,30.01,10.0,SSW,5.8,-,N/A,,Overcast,210,2012-10-07 22:36:00
6:55 PM,43.2,31.6,64,30.01,10.0,SW,4.6,-,N/A,,Overcast,220,2012-10-07 22:55:00
7:15 PM,41.2,32.4,71,30.01,10.0,SSW,4.6,-,N/A,,Scattered Clouds,210,2012-10-07 23:15:00
7:35 PM,40.6,33.3,75,30.01,10.0,SSW,3.5,-,N/A,,Scattered Clouds,210,2012-10-07 23:35:00
7:55 PM,41.0,33.8,76,30.01,10.0,SSW,3.5,-,N/A,,Overcast,210,2012-10-07 23:55:00
8:15 PM,41.7,33.8,73,30.01,10.0,SSW,3.5,-,N/A,,Overcast,210,2012-10-08 00:15:00
8:35 PM,41.9,34.5,75,30.01,10.0,SW,4.6,-,N/A,,Mostly Cloudy,220,2012-10-08 00:35:00
8:55 PM,41.7,34.3,75,30.01,10.0,SW,3.5,-,N/A,,Mostly Cloudy,220,2012-10-08 00:55:00
9:16 PM,40.3,34.3,79,30.01,10.0,SSW,4.6,-,N/A,,Scattered Clouds,200,2012-10-08 01:16:00
9:35 PM,40.3,34.5,80,30.02,10.0,SSW,3.5,-,N/A,,Scattered Clouds,210,2012-10-08 01:35:00
9:55 PM,39.7,34.5,82,30.02,10.0,SSW,4.6,-,N/A,,Clear,210,2012-10-08 01:55:00
10:15 PM,40.3,34.7,80,30.02,10.0,SSW,4.6,-,N/A,,Clear,200,2012-10-08 02:15:00
10:35 PM,40.1,34.9,82,30.02,10.0,SSW,3.5,-,N/A,,Clear,210,2012-10-08 02:35:00
10:56 PM,39.6,34.7,83,30.02,10.0,SSW,4.6,-,N/A,,Clear,210,2012-10-08 02:56:00
11:15 PM,39.4,34.2,82,30.01,10.0,Calm,Calm,-,N/A,,Clear,0,2012-10-08 03:15:00
11:35 PM,39.7,34.9,83,30.01,10.0,SSW,4.6,-,N/A,,Clear,200,2012-10-08 03:35:00
11:56 PM,40.3,35.2,82,30.01,10.0,SSW,4.6,-,N/A,,Clear,200,2012-10-08 03:56:00